P/2019 A2 ( ATLAS )

Japanese version
Home page
Updated on January 10, 2019

---------------------------------------------------------------------

* Profile

Discovery Date January 4, 2019
Magnitude 18.7 mag
Discoverer Asteroid Terrestrial-Impact Last Alert System (ATLAS) search program

* Orbital Elements

Epoch 2018 Nov. 18.0 TT = JDT 2458440.5
T 2018 Dec. 1.21144 TT                                  MPCW
q   3.5542503            (2000.0)            P               Q
n   0.07216773     Peri.  326.08255     -0.27812069     -0.94575553
a   5.7135676      Node   139.33442     +0.92854853     -0.30946041
e   0.3779280      Incl.   14.93239     +0.24585872     +0.09889760
P  13.66
From 83 observations 2018 Dec. 13-2019 Jan. 8, mean residual 0".5.

* Magnitudes Graph

        m1 = 10.5 + 5 log d + 10.0 log r

---------------------------------------------------------------------

The orbital elements are published on M.P.E.C. 2019-A126.
The magnitudes graphs are made with Comet for Windows.

---------------------------------------------------------------------

Copyright(C) Seiichi Yoshida (comet@aerith.net). All rights reserved.